Location: Fluertsh�userhof
(48.7537°N, 10.3850°E)
Time: 02:11:23
(UTC+00:00)

Cosmos 1833 Rocket - Pass Details

Date: 18 September 2020
Orbit: 831 x 841 km, 71.0° (Epoch: 24 October)

Event Time Altitude Azimuth Distance (km) Brightness Sun altitude
Rises 21:43:35 0° 325° (NW) 3,407 6.8 -36.3°
Reaches altitude 10° 21:46:13 10° 317° (NW) 2,468 5.8 -36.5°
Enters shadow 21:49:11 26° 293° (WNW) 1,604 4.4 -36.7°
